(188904) = 2007 AL23

Discovered at Mount Lemmon on 2007-01-10 by Mt. Lemmon Survey.

Orbit

Orbit type: Main Belt

Note: WebGL enabled browser required.

epoch2024-03-31.0
epoch JD2460400.5
perihelion date2025-09-27.82096
perihelion JD2460946.32096
argument of perihelion (°)53.73432
ascending node (°)137.45640
inclination (°)7.18197
eccentricity0.0687126
perihelion distance (AU)2.5331535
Tisserand w.r.t. Jupiter3.3
ΔV w.r.t. Earth (km/sec)10.2
semimajor axis (AU)2.7200556
mean anomaly (°)240.08117
mean daily motion (°/day)0.21970360
aphelion distance (AU)2.907
period (years)4.49
P-vector [x]-0.97670927
P-vector [y]-0.21388137
P-vector [z]0.01713955
Q-vector [x]0.19721346
Q-vector [y]-0.92631752
Q-vector [z]-0.32100266
absolute magnitude16.3
phase slope0.15
uncertainty0
referenceMPEC 2024-C163
observations used539
oppositions16
arc length (days)9483
first opposition used1998
last opposition used2024
residual rms (arc-secs)0.71
perturbers coarse indicatorM-v
perturbers precise indicator003Ek
first observation date used1998-01-18.0
last observation date used2024-01-05.0
computer nameMPCLINUX
JD of orbit computation2456966.875014
perihelion JD uncertainty (days)5.7180E-05
argument of perihelion uncertainty (°)2.5256E-05
ascending node uncertainty (°)2.1932E-05
inclination uncertainty (°)1.4618E-06
eccentricity uncertainty 2.6196E-08
perihelion distance uncertainty (AU)6.9060E-08
Minimum Orbit Intersection Distances (in AU)
for orbit epoch: 2460200.5, reference: E2024-CG3
Mercury2.1085
Venus1.81236
Earth1.53981
Mars0.88495
Jupiter2.063
Saturn6.28356
Uranus15.8943
Neptune26.9478

Observations

558 total observations over interval: 1998 01 18.02522 – 2024 01 05.262819
These data are available for download (format description).

Date (UT) J2000 RA J2000 Dec Magn Location Ref
1998 01 18.02522 08 01 29.70 +16 38 32.9 19.7 V 910 – Caussols-ODAS MPS 199525
1998 01 18.04880 08 01 28.32 +16 38 40.1 19.5 V 910 – Caussols-ODAS MPS 199525
1998 01 18.07175 08 01 27.02 +16 38 47.5 19.5 V 910 – Caussols-ODAS MPS 199525
2003 03 26.27621 12 08 05.75 +08 00 13.3 19.3   644 – Palomar Mountain/NEAT MPS 199525
2003 03 26.28365 12 08 05.38 +08 00 17.4 19.6   644 – Palomar Mountain/NEAT MPS 199525
2003 03 26.30462 12 08 04.39 +08 00 26.5 19.7   644 – Palomar Mountain/NEAT MPS 199525
2003 03 26.33476 12 08 02.90 +08 00 39.3 19.9   644 – Palomar Mountain/NEAT MPS 199525
2003 03 26.35977 12 08 01.65 +08 00 49.2 19.3   644 – Palomar Mountain/NEAT MPS 199525
2003 03 26.42315 12 07 58.58 +08 01 16.2 19.1   644 – Palomar Mountain/NEAT MPS 199525
2003 04 02.32765 12 02 43.12 +08 47 10.7 20.3   608 – Haleakala-AMOS MPS 199525
2003 04 02.33842 12 02 42.61 +08 47 14.2 20.7   608 – Haleakala-AMOS MPS 199525
2003 04 02.34910 12 02 42.14 +08 47 18.6 20.6   608 – Haleakala-AMOS MPS 199525
2003 04 08.15015 11 58 37.97 +09 19 39.1 20.3   644 – Palomar Mountain/NEAT MPS 199525
2003 04 08.17294 11 58 37.00 +09 19 46.3 20.3   644 – Palomar Mountain/NEAT MPS 199525
2003 04 08.19368 11 58 36.19 +09 19 52.2 20.3   644 – Palomar Mountain/NEAT MPS 199525
2005 10 14.353317 01 57 16.795 +01 12 38.21 20.42 V 645 – Apache Point-Sloan Digital Sky Survey MPS 390208
2005 10 14.356789 01 57 16.618 +01 12 36.82 21.40   645 – Apache Point-Sloan Digital Sky Survey MPS 390208
2005 10 20.334487 01 52 24.390 +00 38 40.81 20.45 V 645 – Apache Point-Sloan Digital Sky Survey MPS 390208
2005 10 20.337959 01 52 24.216 +00 38 39.70 21.46   645 – Apache Point-Sloan Digital Sky Survey MPS 390208
2005 10 22.412247 01 50 41.283 +00 27 33.04 20.63 V 645 – Apache Point-Sloan Digital Sky Survey MPS 390208
2005 10 22.415719 01 50 41.108 +00 27 32.01 21.88   645 – Apache Point-Sloan Digital Sky Survey MPS 390208
2005 10 23.402827 01 49 52.173 +00 22 23.40 20.62 V 645 – Apache Point-Sloan Digital Sky Survey MPS 390208
2005 10 23.406299 01 49 51.999 +00 22 22.28 21.61   645 – Apache Point-Sloan Digital Sky Survey MPS 390208
2005 10 25.321237 01 48 17.388 +00 12 41.28 20.55 V 645 – Apache Point-Sloan Digital Sky Survey MPS 390208
2005 10 25.32161 01 48 17.39 +00 12 41.4 21.6   705 – Apache Point MPS 211853
2005 10 25.32243 01 48 17.34 +00 12 40.9 20.7 V 705 – Apache Point MPS 211853
2005 10 25.324709 01 48 17.209 +00 12 40.35 21.51   645 – Apache Point-Sloan Digital Sky Survey MPS 390208
2005 10 26.304637 01 47 28.998 +00 07 52.86 20.60 V 645 – Apache Point-Sloan Digital Sky Survey MPS 390208
2005 10 26.308109 01 47 28.817 +00 07 51.82 21.49   645 – Apache Point-Sloan Digital Sky Survey MPS 390208
2005 10 30.291287 01 44 15.482 -00 10 23.57 20.61 V 645 – Apache Point-Sloan Digital Sky Survey MPS 390208
2005 10 30.294759 01 44 15.306 -00 10 24.49 21.50   645 – Apache Point-Sloan Digital Sky Survey MPS 390208
2005 10 31.286097 01 43 28.161 -00 14 37.46 20.70 V 645 – Apache Point-Sloan Digital Sky Survey MPS 390208
2005 10 31.289569 01 43 27.989 -00 14 38.19 21.69   645 – Apache Point-Sloan Digital Sky Survey MPS 390208
2005 11 02.374437 01 41 50.326 -00 23 02.24 20.77 V 645 – Apache Point-Sloan Digital Sky Survey MPS 390208
2005 11 02.37480 01 41 50.32 -00 23 02.2 20.9   705 – Apache Point MPS 236347
2005 11 02.37562 01 41 50.28 -00 23 02.4 20.4 V 705 – Apache Point MPS 236347
2005 11 02.377909 01 41 50.156 -00 23 03.01 21.78   645 – Apache Point-Sloan Digital Sky Survey MPS 390208
2005 11 03.307037 01 41 07.607 -00 26 34.98 20.73 V 645 – Apache Point-Sloan Digital Sky Survey MPS 390208
2005 11 03.310509 01 41 07.451 -00 26 35.63 21.59   645 – Apache Point-Sloan Digital Sky Survey MPS 390208
2005 11 06.292167 01 38 54.618 -00 37 01.32 20.78 V 645 – Apache Point-Sloan Digital Sky Survey MPS 390208
2005 11 06.29253 01 38 54.61 -00 37 01.3 21.6   705 – Apache Point MPS 211853
2005 11 06.29336 01 38 54.57 -00 37 01.4 20.8 V 705 – Apache Point MPS 211853
2005 11 06.295639 01 38 54.463 -00 37 01.99 21.68   645 – Apache Point-Sloan Digital Sky Survey MPS 390208
2005 11 07.335297 01 38 09.680 -00 40 19.73 20.88 V 645 – Apache Point-Sloan Digital Sky Survey MPS 390208
2005 11 07.33566 01 38 09.67 -00 40 19.7 21.4   705 – Apache Point MPS 211853
2005 11 07.33649 01 38 09.64 -00 40 19.9 20.8 V 705 – Apache Point MPS 211853
2005 11 07.338769 01 38 09.531 -00 40 20.38 21.69   645 – Apache Point-Sloan Digital Sky Survey MPS 390208
2005 11 12.288777 01 34 49.858 -00 53 31.71 20.79 V 645 – Apache Point-Sloan Digital Sky Survey MPS 390208
2005 11 12.292249 01 34 49.689 -00 53 32.25 21.43   645 – Apache Point-Sloan Digital Sky Survey MPS 390208
2005 11 20.302827 01 30 20.880 -01 05 48.09 21.24 V 645 – Apache Point-Sloan Digital Sky Survey MPS 390208
2005 11 20.306299 01 30 20.760 -01 05 48.79 22.24   645 – Apache Point-Sloan Digital Sky Survey MPS 390208
2005 11 23.285977 01 29 00.305 -01 07 27.79 21.31 V 645 – Apache Point-Sloan Digital Sky Survey MPS 390208
2005 11 23.28634 01 29 00.30 -01 07 27.8 21.9   705 – Apache Point MPS 211853
2005 11 23.28718 01 29 00.28 -01 07 27.8 21.1 V 705 – Apache Point MPS 211853
2005 11 23.289449 01 29 00.213 -01 07 27.79 21.94   645 – Apache Point-Sloan Digital Sky Survey MPS 390208
2005 11 26.284137 01 27 50.857 -01 07 32.55 21.08 V 645 – Apache Point-Sloan Digital Sky Survey MPS 390208
2005 11 26.28450 01 27 50.85 -01 07 32.7 21.3   705 – Apache Point MPS 211853
2005 11 26.28534 01 27 50.84 -01 07 32.5 20.9 V 705 – Apache Point MPS 211853
2005 11 26.287609 01 27 50.794 -01 07 32.42 22.11   645 – Apache Point-Sloan Digital Sky Survey MPS 390208
2005 12 01.269787 01 26 22.124 -01 04 11.99 21.24 V 645 – Apache Point-Sloan Digital Sky Survey MPS 390208
2005 12 01.27015 01 26 22.12 -01 04 12.0 22.2   705 – Apache Point MPS 211853
2005 12 01.27098 01 26 22.11 -01 04 12.0 21.3 V 705 – Apache Point MPS 211853
2005 12 01.273259 01 26 22.071 -01 04 11.71 22.21   645 – Apache Point-Sloan Digital Sky Survey MPS 390208
2007 01 10.36674 08 32 09.52 +15 21 31.5 19.7 V G96 – Mt. Lemmon Survey MPS 197146
2007 01 10.38005 08 32 08.84 +15 21 35.3 19.9 V G96 – Mt. Lemmon Survey MPS 197146
2007 01 10.38634 08 32 08.52 +15 21 37.3 19.9 V G96 – Mt. Lemmon Survey MPS 197146
2007 01 17.35462 08 26 15.47 +15 58 58.8 19.4 R 644 – Palomar Mountain/NEAT MPS 197146
2007 01 17.37508 08 26 14.33 +15 59 05.9 19.4 R 644 – Palomar Mountain/NEAT MPS 197146
2007 01 17.39560 08 26 13.21 +15 59 12.6 19.4 R 644 – Palomar Mountain/NEAT MPS 197146
2007 01 24.33056 08 19 55.81 +16 39 07.7 19.5 V 703 – Catalina Sky Survey MPS 197146
2007 01 24.33645 08 19 55.45 +16 39 10.8 19.5 V 703 – Catalina Sky Survey MPS 197146
2007 01 24.34236 08 19 55.02 +16 39 12.1 19.2 V 703 – Catalina Sky Survey MPS 197146
2007 01 24.34829 08 19 54.73 +16 39 14.2 19.5 V 703 – Catalina Sky Survey MPS 197146
2007 02 05.29873 08 09 13.26 +17 48 56.1 19.8 R 644 – Palomar Mountain/NEAT MPS 198779
2007 02 05.34486 08 09 10.83 +17 49 11.3 19.9 R 644 – Palomar Mountain/NEAT MPS 198779
2007 02 05.36651 08 09 09.72 +17 49 18.9 19.6 R 644 – Palomar Mountain/NEAT MPS 198779
2007 02 08.22616 08 06 48.74 +18 05 21.0 19.8 V G96 – Mt. Lemmon Survey MPS 198780
2007 02 08.23392 08 06 48.34 +18 05 23.8 19.7 V G96 – Mt. Lemmon Survey MPS 198780
2007 02 08.24164 08 06 47.98 +18 05 26.4 19.8 V G96 – Mt. Lemmon Survey MPS 198780
2007 02 08.24938 08 06 47.59 +18 05 29.0 19.8 V G96 – Mt. Lemmon Survey MPS 198780
2007 02 13.25328 08 03 00.15 +18 32 25.1 19.7   704 – Lincoln Laboratory ETS, New Mexico MPS 199525
2007 02 13.26442 08 02 59.68 +18 32 28.9 19.5   704 – Lincoln Laboratory ETS, New Mexico MPS 199525
2007 02 13.27557 08 02 59.14 +18 32 31.4 19.6   704 – Lincoln Laboratory ETS, New Mexico MPS 199525
2007 02 13.28699 08 02 58.66 +18 32 36.3 20.3   704 – Lincoln Laboratory ETS, New Mexico MPS 199525
2007 02 13.29826 08 02 58.13 +18 32 39.5 20.0   704 – Lincoln Laboratory ETS, New Mexico MPS 199525
2007 02 22.21792 07 57 33.22 +19 15 53.8 19.9 V G96 – Mt. Lemmon Survey MPS 200439
2007 02 22.22391 07 57 33.01 +19 15 55.3 20.2 V G96 – Mt. Lemmon Survey MPS 200439
2007 02 22.22999 07 57 32.83 +19 15 57.2 20.2 V G96 – Mt. Lemmon Survey MPS 200439
